Overview Statistics Trail Chart Weather Telemetry Raw packets
 

This is the latest recevied weather packets stored in our database for station/object WB9PAR. If no packets are shown the sender has not sent any weather packets the latest 10 day(s).

<< 1 2 3 4 5 6 7 >>
Time Temp. Humidity Pressure Rain* Wind** Luminosity Snow
1788553548 33.89° C 60% 1045.4 hPa 0 mm - 613 W/m² -
1788553245 35.56° C 51% 1045.3 hPa 0 mm - 497 W/m² -
1788552944 36.11° C 47% 1045.4 hPa 0 mm - 255 W/m² -
1788552640 35.56° C 46% 1045.1 hPa 0 mm - 621 W/m² -
1788552338 36.67° C 44% 1045.1 hPa 0 mm - 596 W/m² -
1788552034 36.67° C 46% 1045.2 hPa 0 mm - 736 W/m² -
1788551732 36.67° C 46% 1045.2 hPa 0 mm - 702 W/m² -
1788551432 36.11° C 47% 1045.2 hPa 0 mm - 708 W/m² -
1788551126 35.56° C 47% 1045.3 hPa 0 mm - 514 W/m² -
1788550821 36.11° C 45% 1045.4 hPa 0 mm - 643 W/m² -
1788550516 36.67° C 48% 1045.5 hPa 0 mm - 511 W/m² -
1788550213 36.11° C 45% 1045.4 hPa 0 mm - 731 W/m² -
1788549912 36.11° C 45% 1045.4 hPa 0 mm - 718 W/m² -
1788549608 36.67° C 44% 1045.7 hPa 0 mm - 676 W/m² -
1788549304 36.67° C 44% 1045.7 hPa 0 mm - 675 W/m² -
1788549001 36.67° C 47% 1045.8 hPa 0 mm - 671 W/m² -
1788548696 36.11° C 49% 1045.8 hPa 0 mm - 691 W/m² -
1788548392 35.56° C 50% 1046.1 hPa 0 mm - 710 W/m² -
1788548088 36.11° C 46% 1046.3 hPa 0 mm - 447 W/m² -
1788547783 36.11° C 50% 1046.2 hPa 0 mm - 723 W/m² -
1788547483 36.11° C 48% 1046.5 hPa 0 mm - 724 W/m² -
1788547178 36.11° C 51% 1046.5 hPa 0 mm - 737 W/m² -
1788546873 35.56° C 50% 1046.5 hPa 0 mm - 744 W/m² -
1788546569 35.56° C 51% 1046.6 hPa 0 mm - 741 W/m² -
1788546264 36.11° C 49% 1046.7 hPa 0 mm - 150 W/m² -

* Rain latest hour (hover to see other rain measurements)
** Current wind speed in m/s (hover to see current wind gust speed)